N3WXO-1 Weather Reports


time (UTC)temp
C
wind
direction
speed
KPH
gust
KPH
rain 1hr
cm
rain 24hr
cm
rain mn
cm
humidity
%
barometer
mb
20260507013520 11 348 0.0 0.0 0.00 1.07 1.07 89 1010.9
20260507013027 11 348 0.0 0.0 0.00 1.07 1.07 90 1010.9
20260507012521 11 348 0.0 0.0 0.00 1.07 1.07 90 1010.9
20260507012032 11 348 0.0 4.8 0.00 1.07 1.07 89 1010.8
20260507011520 11 348 0.0 4.8 0.00 1.07 1.07 89 1010.8
20260507011033 11 351 1.6 3.2 0.00 1.07 1.07 90 1010.9
20260507010523 11 353 0.0 0.0 0.00 1.07 1.07 90 1010.6
20260507010033 11 353 0.0 4.8 0.00 1.07 1.07 90 1010.4
20260507005522 12 353 0.0 6.4 0.00 1.07 1.07 90 1010.4
20260507005028 12 352 0.0 6.4 0.00 1.07 1.07 89 1010.2
20260507004517 12 349 0.0 8.0 0.00 1.07 1.07 89 1010.0
20260507004035 12 300 0.0 11.3 0.00 1.07 1.07 90 1010.0
20260507003526 12 280 1.6 11.3 0.00 1.07 1.07 90 1009.7
20260507003033 12 43 0.0 8.0 0.00 1.07 1.07 90 1009.7
20260507002524 12 36 0.0 4.8 0.00 1.07 1.07 89 1009.5
20260507002014 12 343 0.0 4.8 0.00 1.07 1.07 89 1009.5
20260507001527 12 344 0.0 4.8 0.00 1.07 1.07 89 1009.4
20260507001020 13 349 0.0 6.4 0.00 1.07 1.07 89 1009.2
20260507000516 13 358 0.0 6.4 0.00 1.07 1.07 89 1009.2
20260507000030 13 359 1.6 8.0 0.00 1.07 1.07 89 1009.0
20260506235527 14 359 1.6 14.5 0.00 1.07 1.07 88 1008.8
20260506235032 14 349 3.2 24.1 0.00 1.07 1.07 88 1008.7
20260506234522 15 349 3.2 24.1 0.00 1.07 1.07 89 1008.8
20260506234034 15 4 6.4 16.1 0.03 1.07 1.07 90 1008.5
20260506233523 16 26 0.0 16.1 0.03 1.07 1.07 93 1008.3
20260506233031 17 240 0.0 0.0 0.05 1.07 1.07 94 1007.7
20260506231530 17 240 0.0 0.0 0.05 1.07 1.07 94 1007.5
20260506231027 17 240 0.0 0.0 0.05 1.07 1.07 94 1007.5
20260506230522 17 240 0.0 8.0 0.05 1.07 1.07 94 1007.4
20260506230028 17 240 0.0 8.0 0.05 1.07 1.07 93 1007.5
20260506225515 17 241 1.6 6.4 0.05 1.07 1.07 93 1007.6
20260506225028 17 238 0.0 0.0 0.05 1.07 1.07 93 1007.6
20260506224530 17 238 0.0 0.0 0.05 1.07 1.07 93 1007.5
20260506224015 17 238 0.0 0.0 0.03 1.04 1.04 93 1007.5
20260506223529 17 238 0.0 0.0 0.03 1.04 1.04 93 1007.4
20260506223017 17 238 0.0 0.0 0.00 1.02 1.02 92 1007.5
20260506222016 17 238 0.0 0.0 0.00 1.02 1.02 92 1007.4
20260506221527 17 238 0.0 3.2 0.00 1.02 1.02 92 1007.4
20260506221029 17 238 0.0 6.4 0.00 1.02 1.02 92 1007.3
20260506220516 17 243 0.0 8.0 0.00 1.02 1.02 92 1007.3
20260506220022 17 245 3.2 8.0 0.00 1.02 1.02 93 1007.3
20260506215530 17 240 0.0 16.1 0.00 1.02 1.02 93 1007.2
20260506215020 17 241 6.4 16.1 0.00 1.02 1.02 93 1007.1
20260506214515 17 236 0.0 6.4 0.00 1.02 1.02 93 1007.1
20260506214027 17 234 0.0 8.0 0.00 1.02 1.02 94 1007.0
20260506213530 17 237 1.6 9.7 0.00 1.02 1.02 94 1007.0
20260506213014 17 238 1.6 9.7 0.00 1.02 1.02 94 1007.0
20260506212521 17 236 1.6 9.7 0.00 1.02 1.02 94 1006.9
20260506212029 17 232 0.0 9.7 0.00 1.02 1.02 94 1006.8
20260506211515 17 224 0.0 6.4 0.00 1.02 1.02 94 1006.8
20260506210530 16 234 0.0 6.4 0.00 1.02 1.02 95 1006.7
20260506210027 16 236 0.0 12.9 0.00 1.02 1.02 95 1006.8
20260506205520 16 236 3.2 12.9 0.00 1.02 1.02 95 1006.7
20260506205029 16 225 1.6 6.4 0.00 1.02 1.02 95 1006.7
20260506204516 16 228 0.0 4.8 0.00 1.02 1.02 95 1006.7
20260506204019 16 228 0.0 4.8 0.00 1.02 1.02 95 1006.7
20260506203530 16 228 0.0 0.0 0.00 1.02 1.02 95 1006.7
20260506203020 16 228 0.0 8.0 0.00 1.02 1.02 95 1006.8
20260506202525 16 228 1.6 11.3 0.00 1.02 1.02 95 1006.7
20260506202033 16 226 3.2 11.3 0.00 1.02 1.02 95 1006.6
20260506201522 16 234 0.0 4.8 0.00 1.02 1.02 95 1006.7
20260506201026 16 235 0.0 4.8 0.00 1.02 1.02 95 1006.5
20260506200521 16 236 0.0 6.4 0.00 1.02 1.02 95 1006.6
20260506200032 16 235 0.0 6.4 0.00 1.02 1.02 95 1006.7
20260506195520 16 238 0.0 6.4 0.00 1.02 1.02 95 1006.7
20260506195029 16 234 0.0 8.0 0.00 1.02 1.02 95 1006.7
20260506194518 16 232 0.0 8.0 0.00 1.02 1.02 95 1006.8
20260506194024 16 231 0.0 8.0 0.00 1.02 1.02 95 1006.9
20260506193513 16 235 1.6 8.0 0.03 1.02 1.02 95 1006.9
20260506193023 16 230 0.0 0.0 0.03 1.02 1.02 96 1006.9
20260506192531 16 230 0.0 0.0 0.03 1.02 1.02 96 1006.9
20260506192024 16 230 0.0 0.0 0.03 1.02 1.02 96 1007.1
20260506191536 16 230 0.0 11.3 0.05 1.02 1.02 95 1007.1
20260506191022 16 231 3.2 11.3 0.05 1.02 1.02 95 1007.1
20260506190532 16 209 3.2 12.9 0.05 1.02 1.02 96 1007.1
20260506190018 16 253 0.0 12.9 0.08 1.02 1.02 96 1007.2
20260506185522 16 235 1.6 9.7 0.08 1.02 1.02 96 1007.2
20260506185032 16 231 1.6 8.0 0.10 1.02 1.02 96 1007.3
20260506184516 16 242 0.0 11.3 0.13 1.02 1.02 96 1007.3
20260506184026 16 243 1.6 9.7 0.13 0.99 0.99 96 1007.4
20260506183514 16 216 0.0 8.0 0.15 0.99 0.99 96 1007.4
20260506183019 16 224 1.6 8.0 0.18 0.99 0.99 96 1007.5
20260506182526 16 228 0.0 8.0 0.20 0.99 0.99 95 1007.5
20260506182032 16 226 0.0 4.8 0.23 0.99 0.99 96 1007.5
20260506181543 16 226 0.0 4.8 0.20 0.97 0.97 96 1007.5
20260506181018 16 233 1.6 6.4 0.23 0.97 0.97 96 1007.6
20260506180524 16 232 0.0 6.4 0.23 0.97 0.97 96 1007.6
20260506180031 16 226 0.0 9.7 0.23 0.94 0.94 96 1007.6
20260506175513 16 226 1.6 9.7 0.23 0.94 0.94 96 1007.6
20260506175022 16 201 1.6 8.0 0.23 0.91 0.91 96 1007.6
20260506174531 16 220 0.0 16.1 0.23 0.89 0.89 95 1007.6
20260506174035 16 221 0.0 0.0 0.23 0.86 0.86 95 1007.7
20260506173528 16 221 0.0 0.0 0.23 0.84 0.84 95 1007.7
20260506173040 16 221 0.0 0.0 0.20 0.81 0.81 95 1007.7
20260506172542 16 221 0.0 0.0 0.18 0.79 0.79 95 1007.7
20260506172027 16 221 0.0 6.4 0.18 0.76 0.76 95 1007.8
20260506171515 16 221 1.6 6.4 0.18 0.76 0.76 95 1007.8
20260506171023 16 220 0.0 8.0 0.15 0.74 0.74 95 1007.8
20260506170532 16 219 0.0 9.7 0.15 0.74 0.74 95 1007.8
20260506170023 16 231 3.2 12.9 0.15 0.71 0.71 95 1007.8
20260506165530 16 232 0.0 12.9 0.15 0.71 0.71 95 1007.8
20260506165024 16 223 0.0 11.3 0.13 0.69 0.69 95 1007.8
20260506164530 16 224 0.0 11.3 0.10 0.66 0.66 94 1007.8
20260506164041 16 212 1.6 9.7 0.10 0.64 0.64 94 1007.8
20260506163518 16 185 1.6 9.7 0.10 0.61 0.61 94 1008.0
20260506163027 16 218 1.6 9.7 0.13 0.61 0.61 94 1007.9
20260506162517 16 207 0.0 11.3 0.15 0.61 0.61 94 1008.0
20260506162027 16 238 1.6 11.3 0.18 0.58 0.58 94 1008.0
20260506161532 16 239 1.6 9.7 0.18 0.58 0.58 94 1007.9
20260506161018 16 229 3.2 9.7 0.20 0.58 0.58 94 1007.9
20260506160525 16 232 0.0 14.5 0.23 0.58 0.58 94 1008.0
20260506160015 16 184 1.6 14.5 0.23 0.56 0.56 94 1008.0
20260506155524 16 220 3.2 22.5 0.23 0.56 0.56 94 1008.0
20260506155031 16 193 9.7 22.5 0.25 0.56 0.56 94 1008.1
20260506154513 16 200 0.0 8.0 0.25 0.56 0.56 94 1008.1
20260506154021 16 203 3.2 8.0 0.23 0.51 0.51 94 1008.1
20260506153530 16 157 0.0 16.1 0.23 0.51 0.51 94 1008.1
20260506153022 16 127 1.6 16.1 0.23 0.48 0.48 94 1008.1
20260506152515 16 210 0.0 17.7 0.18 0.43 0.43 94 1008.5
20260506152017 16 208 1.6 17.7 0.15 0.41 0.41 93 1008.7
20260506151521 16 217 1.6 14.5 0.15 0.38 0.38 93 1008.8
20260506151014 16 210 0.0 6.4 0.18 0.38 0.38 93 1008.6
20260506150525 16 221 0.0 8.0 0.15 0.36 0.36 94 1008.5
20260506150033 16 199 1.6 8.0 0.15 0.33 0.33 94 1008.4
20260506145523 16 198 1.6 11.3 0.18 0.33 0.33 94 1008.4
20260506145029 16 150 3.2 12.9 0.15 0.30 0.30 94 1008.2
20260506144538 16 209 1.6 12.9 0.15 0.30 0.30 93 1008.3
20260506144016 16 167 1.6 11.3 0.13 0.28 0.28 93 1008.3
20260506143523 16 174 1.6 11.3 0.15 0.28 0.28 93 1008.3
20260506143014 16 199 0.0 4.8 0.15 0.25 0.25 93 1008.2
20260506142521 16 175 0.0 9.7 0.15 0.25 0.25 93 1008.4
20260506142030 16 165 0.0 9.7 0.18 0.25 0.25 93 1008.5
20260506141516 16 214 0.0 11.3 0.15 0.23 0.23 93 1008.7
20260506141027 16 218 0.0 11.3 0.15 0.20 0.20 92 1008.8
20260506140519 16 238 1.6 11.3 0.15 0.20 0.20 92 1008.8
20260506140024 16 185 0.0 14.5 0.15 0.18 0.18 92 1008.8
20260506135515 16 187 1.6 14.5 0.13 0.15 0.15 92 1008.7
20260506135026 16 220 0.0 16.1 0.13 0.15 0.15 91 1008.7
20260506134514 16 199 1.6 8.0 0.13 0.15 0.15 91 1008.5
20260506134023 16 236 1.6 9.7 0.10 0.13 0.13 91 1008.7
20260506133517 16 204 0.0 11.3 0.10 0.13 0.13 90 1008.8
20260506133020 16 204 1.6 11.3 0.10 0.10 0.10 90 1008.9
20260506132524 16 220 3.2 11.3 0.10 0.10 0.10 89 1008.9
20260506132015 16 234 1.6 11.3 0.08 0.08 0.08 88 1008.9
20260506131525 16 220 1.6 14.5 0.08 0.08 0.08 88 1008.9
20260506131032 16 206 4.8 16.1 0.05 0.05 0.05 87 1008.9
20260506130518 17 187 1.6 12.9 0.05 0.05 0.05 87 1009.0
20260506130023 17 207 0.0 8.0 0.03 0.03 0.03 87 1009.0
20260506125514 17 187 0.0 9.7 0.03 0.03 0.03 86 1009.0
20260506125025 17 200 1.6 12.9 0.03 0.03 0.03 85 1009.0
20260506124521 17 197 3.2 12.9 0.03 0.03 0.03 85 1008.9
20260506124014 17 226 0.0 6.4 0.03 0.03 0.03 85 1008.9
20260506123519 17 226 1.6 14.5 0.03 0.03 0.03 84 1008.8
20260506123026 17 220 0.0 14.5 0.00 0.00 0.00 84 1008.8
20260506122518 17 213 4.8 14.5 0.00 0.00 0.00 83 1008.8
20260506122026 17 227 3.2 11.3 0.00 0.00 0.00 84 1008.8
20260506121532 17 234 0.0 11.3 0.00 0.00 0.00 84 1008.7
20260506121024 17 237 3.2 11.3 0.00 0.00 0.00 83 1008.7
20260506120523 17 227 1.6 8.0 0.00 0.00 0.00 83 1008.6
20260506120017 17 211 0.0 1.6 0.00 0.00 0.00 84 1008.7
20260506115533 17 214 0.0 8.0 0.00 0.00 0.00 84 1008.7
20260506115026 17 215 0.0 8.0 0.00 0.00 0.00 83 1008.7
20260506114513 17 205 0.0 6.4 0.00 0.00 0.00 82 1008.7
20260506114022 17 205 0.0 8.0 0.00 0.00 0.00 82 1008.8
20260506113532 17 213 0.0 8.0 0.00 0.00 0.00 81 1008.7
20260506113025 17 220 0.0 8.0 0.00 0.00 0.00 81 1008.8
20260506112519 17 221 1.6 8.0 0.00 0.00 0.00 80 1008.7
20260506112024 17 213 0.0 6.4 0.00 0.00 0.00 80 1008.8
20260506111516 17 213 0.0 6.4 0.00 0.00 0.00 80 1008.8
20260506111025 17 206 0.0 6.4 0.00 0.00 0.00 80 1008.7
20260506110533 17 205 0.0 0.0 0.00 0.00 0.00 80 1008.6
20260506110024 17 205 0.0 0.0 0.00 0.00 0.00 80 1008.5
20260506105533 17 205 0.0 4.8 0.00 0.00 0.00 80 1008.4
20260506105021 16 205 0.0 4.8 0.00 0.00 0.00 80 1008.4
20260506104515 16 206 0.0 8.0 0.00 0.00 0.00 80 1008.2
20260506104023 16 206 0.0 8.0 0.00 0.00 0.00 81 1008.2
20260506103537 16 182 0.0 3.2 0.00 0.00 0.00 81 1008.1
20260506103024 16 180 0.0 1.6 0.00 0.00 0.00 81 1008.1
20260506102529 16 180 0.0 1.6 0.00 0.00 0.00 81 1008.0
20260506102016 16 178 0.0 8.0 0.00 0.00 0.00 81 1008.0
20260506101525 16 178 0.0 8.0 0.00 0.00 0.00 80 1007.9
20260506101013 16 224 0.0 0.0 0.00 0.00 0.00 80 1008.0
20260506100519 16 224 0.0 0.0 0.00 0.00 0.00 79 1008.0
20260506100025 16 224 0.0 0.0 0.00 0.00 0.00 79 1008.0
20260506095514 16 224 0.0 0.0 0.00 0.00 0.00 79 1008.0
20260506095023 16 224 0.0 0.0 0.00 0.00 0.00 78 1008.1
20260506094515 16 224 0.0 0.0 0.00 0.00 0.00 78 1008.1
20260506094026 16 224 0.0 0.0 0.00 0.00 0.00 78 1008.2
20260506093532 16 224 0.0 0.0 0.00 0.00 0.00 78 1008.2
20260506093018 16 224 0.0 0.0 0.00 0.00 0.00 77 1008.1
20260506092525 16 224 0.0 0.0 0.00 0.00 0.00 77 1008.1
20260506092033 16 224 0.0 0.0 0.00 0.00 0.00 75 1008.1
20260506091520 16 224 0.0 0.0 0.00 0.00 0.00 74 1008.2
20260506091024 17 224 0.0 0.0 0.00 0.00 0.00 73 1008.2
20260506090513 17 224 0.0 0.0 0.00 0.00 0.00 73 1008.2
20260506090030 17 224 0.0 0.0 0.00 0.20 0.00 73 1008.2
20260506085515 17 224 0.0 0.0 0.00 0.20 0.00 73 1008.1
20260506085023 17 224 0.0 0.0 0.00 0.20 0.00 72 1008.2
20260506084534 17 224 0.0 6.4 0.00 0.20 0.00 72 1008.2
20260506084022 17 225 0.0 1.6 0.00 0.20 0.00 71 1008.2
20260506083526 17 225 0.0 0.0 0.00 0.20 0.00 71 1008.3
20260506083033 17 225 0.0 8.0 0.00 0.20 0.00 71 1008.3
20260506082518 17 225 1.6 8.0 0.00 0.20 0.00 71 1008.3
20260506082028 17 227 0.0 8.0 0.00 0.20 0.00 71 1008.3
20260506081520 17 226 0.0 1.6 0.00 0.20 0.00 71 1008.3
20260506081025 17 226 0.0 1.6 0.00 0.20 0.00 71 1008.3
20260506080531 17 226 0.0 1.6 0.00 0.20 0.00 70 1008.3
20260506073528 18 234 0.0 6.4 0.00 0.20 0.00 68 1008.3
20260506073031 18 234 0.0 6.4 0.00 0.20 0.00 68 1008.3
20260506072524 18 236 0.0 4.8 0.00 0.20 0.00 68 1008.4
20260506072030 17 234 0.0 3.2 0.00 0.20 0.00 68 1008.5
20260506071517 17 235 0.0 9.7 0.00 0.20 0.00 68 1008.5
20260506071027 17 224 0.0 16.1 0.00 0.20 0.00 69 1008.4
20260506070513 17 221 3.2 16.1 0.00 0.20 0.00 70 1008.5
20260506062021 16 240 0.0 0.0 0.00 0.20 0.00 73 1009.0
20260506061517 16 240 0.0 1.6 0.00 0.20 0.00 72 1009.0
20260506061026 16 240 0.0 1.6 0.00 0.20 0.00 73 1009.0
20260506060531 15 240 0.0 8.0 0.00 0.20 0.00 73 1009.1
20260506051031 15 230 0.0 0.0 0.00 0.20 0.00 79 1009.5
20260506050518 15 230 0.0 0.0 0.00 0.20 0.00 79 1009.5
20260506045023 15 230 0.0 0.0 0.00 0.20 0.00 78 1009.5
20260506044534 15 230 0.0 0.0 0.00 0.20 0.00 77 1009.6
20260506044019 15 230 0.0 0.0 0.00 0.20 0.00 75 1009.5
20260506043526 15 230 0.0 0.0 0.00 0.20 0.00 75 1009.5
20260506043031 15 230 0.0 0.0 0.00 0.20 0.00 76 1009.5
20260506042522 15 230 0.0 0.0 0.00 0.20 0.00 74 1009.5
20260506042023 15 230 0.0 0.0 0.00 0.20 0.00 75 1009.5
20260506041529 16 230 0.0 0.0 0.00 0.20 0.00 73 1009.4
20260506041035 16 230 0.0 0.0 0.00 0.20 0.00 72 1009.4
20260506040523 16 230 0.0 0.0 0.00 0.20 0.00 71 1009.4
20260506040033 16 230 0.0 0.0 0.00 0.20 0.20 71 1009.5
20260506035533 16 230 0.0 0.0 0.00 0.20 0.20 69 1009.4
20260506035021 16 230 0.0 0.0 0.00 0.20 0.20 68 1009.4
20260506034514 17 230 0.0 0.0 0.00 0.20 0.20 68 1009.4
20260506034024 17 230 0.0 0.0 0.00 0.20 0.20 68 1009.4
20260506033519 17 230 0.0 0.0 0.00 0.20 0.20 66 1009.3
20260506033031 17 230 0.0 0.0 0.00 0.20 0.20 66 1009.3
20260506032533 17 231 0.0 0.0 0.00 0.20 0.20 63 1009.3
20260506032022 17 230 0.0 0.0 0.00 0.20 0.20 64 1009.3
20260506031514 17 230 0.0 0.0 0.00 0.20 0.20 64 1009.2
20260506031024 18 230 0.0 0.0 0.00 0.20 0.20 63 1009.2
20260506030531 18 230 0.0 8.0 0.00 0.20 0.20 63 1009.1
20260506030023 18 231 0.0 8.0 0.00 0.20 0.20 62 1009.2
20260506025531 18 201 0.0 0.0 0.00 0.20 0.20 61 1009.1
20260506025021 18 201 0.0 0.0 0.00 0.20 0.20 61 1009.2
20260506024515 18 201 0.0 0.0 0.00 0.20 0.20 61 1009.3
20260506024026 18 201 0.0 4.8 0.00 0.20 0.20 60 1009.3
20260506023517 18 201 0.0 8.0 0.00 0.20 0.20 59 1009.2
20260506023026 19 199 0.0 4.8 0.00 0.20 0.20 59 1009.2
20260506022514 19 198 0.0 6.4 0.00 0.20 0.20 60 1009.2
20260506022028 20 200 1.6 6.4 0.00 0.20 0.20 59 1009.2
20260506021518 20 191 1.6 4.8 0.00 0.20 0.20 56 1009.1
20260506021031 21 197 0.0 9.7 0.00 0.20 0.20 52 1009.0
20260506020520 21 196 3.2 9.7 0.00 0.20 0.20 51 1009.1
20260506020032 21 223 0.0 0.0 0.00 0.20 0.20 51 1009.1
20260506015526 21 225 0.0 0.0 0.00 0.20 0.20 51 1009.1
20260506015015 22 225 0.0 1.6 0.00 0.20 0.20 50 1009.1
20260506014527 22 225 0.0 3.2 0.00 0.20 0.20 48 1009.0
20260506014020 22 224 0.0 1.6 0.00 0.20 0.20 48 1009.0